FW5309 Weather Reports


Display with metric or nautical units.
time (UTC)temp
F
wind
direction
speed
MPH
gust
MPH
rain 1hr
in
rain 24hr
in
rain mn
in
humidity
%
barometer
mb
20260502130106 51 144 0.0 4.0 0.00 0.00 0.00 41 1014.5
20260502123033 51 146 0.0 4.0 0.00 0.00 0.00 42 1014.5
20260502121545 51 135 0.0 0.0 0.00 0.00 0.00 42 1014.5
20260502114502 50 139 0.0 0.0 0.00 0.00 0.00 42 1014.0
20260502113134 50 139 0.0 0.0 0.00 0.00 0.00 41 1014.0
20260502111525 50 141 0.0 0.0 0.00 0.00 0.00 40 1014.0
20260502110023 50 144 0.0 0.0 0.00 0.00 0.00 40 1013.9
20260502104534 50 116 0.0 0.0 0.00 0.00 0.00 40 1014.0
20260502103031 50 117 0.0 0.0 0.00 0.00 0.00 39 1014.0
20260502101550 51 114 0.0 0.0 0.00 0.00 0.00 40 1014.1
20260502091524 51 106 0.0 0.0 0.00 0.00 0.00 44 1013.9
20260502071536 53 130 0.0 0.0 0.00 0.00 0.00 56 1013.3
20260502070045 53 130 0.0 6.0 0.00 0.00 0.00 55 1013.4
20260502064557 53 120 0.0 3.0 0.00 0.00 0.00 55 1013.4
20260502063053 53 116 0.0 5.0 0.00 0.00 0.00 55 1013.5
20260502061512 54 172 0.0 0.0 0.00 0.00 0.00 54 1013.8
20260502060014 54 172 0.0 0.0 0.00 0.00 0.00 54 1013.7
20260502054535 55 172 0.0 0.0 0.00 0.00 0.00 54 1013.5
20260502053037 55 172 0.0 0.0 0.00 0.00 0.00 52 1013.4
20260502051604 55 172 0.0 0.0 0.00 0.00 0.00 52 1013.5
20260502050048 56 172 0.0 0.0 0.00 0.00 0.00 52 1013.5
20260502044506 57 170 0.0 3.0 0.00 0.00 0.00 52 1013.5
20260502043016 57 196 0.0 8.0 0.00 0.00 0.00 52 1013.4
20260502041522 57 149 0.0 1.0 0.00 0.00 0.00 52 1013.4
20260502040018 58 129 0.0 4.0 0.00 0.00 0.00 51 1013.3
20260502034526 58 134 0.0 8.0 0.00 0.00 0.00 51 1013.3
20260502033015 59 135 0.0 0.0 0.00 0.00 0.00 49 1012.9
20260502031547 60 146 0.0 1.0 0.00 0.00 0.00 47 1012.7
20260502030047 61 149 0.0 0.0 0.00 0.00 0.00 44 1012.7
20260502024509 61 135 0.0 4.0 0.00 0.00 0.00 42 1012.4
20260502023019 62 160 0.0 9.0 0.00 0.00 0.00 40 1012.1
20260502021541 62 126 0.0 5.0 0.00 0.00 0.00 44 1011.4
20260502020039 63 115 0.0 6.0 0.00 0.00 0.00 45 1011.3
20260502014600 63 125 0.0 0.0 0.00 0.00 0.00 45 1011.2
20260502014503 63 125 0.0 0.0 0.00 0.00 0.00 45 1011.2
20260502013010 63 113 1.0 7.0 0.00 0.00 0.00 45 1010.8
20260502011522 62 62 0.0 4.0 0.00 0.00 0.00 44 1010.7
20260502010026 63 22 0.0 4.0 0.00 0.00 0.00 43 1010.6
20260502004539 63 47 0.0 8.0 0.00 0.00 0.00 43 1010.3
20260502003050 63 82 0.0 0.0 0.00 0.00 0.00 43 1010.2
20260502001508 63 99 0.0 4.0 0.00 0.00 0.00 43 1009.7
20260502000018 63 84 0.0 6.0 0.00 0.00 0.00 42 1009.3
20260501234537 64 359 0.0 0.0 0.00 0.00 0.00 41 1009.3
20260501233029 65 352 0.0 0.0 0.00 0.00 0.00 40 1009.4
20260501231553 65 352 0.0 0.0 0.00 0.00 0.00 40 1009.4
20260501224514 67 332 3.0 12.0 0.00 0.00 0.00 36 1009.2
20260501223015 68 54 4.0 12.0 0.00 0.00 0.00 35 1009.3
20260501221542 68 316 0.0 0.0 0.00 0.00 0.00 35 1009.6
20260501220040 68 53 2.0 8.0 0.00 0.00 0.00 34 1009.6
20260501214555 68 1 1.0 13.0 0.00 0.00 0.00 34 1009.6
20260501213003 68 356 0.0 8.0 0.00 0.00 0.00 35 1009.9
20260501211519 68 301 0.0 8.0 0.00 0.00 0.00 35 1010.0
20260501210027 67 42 0.0 6.0 0.00 0.00 0.00 36 1010.2
20260501204539 67 316 0.0 0.0 0.00 0.00 0.00 34 1010.2
20260501203033 67 347 1.0 11.0 0.00 0.00 0.00 34 1010.5
20260501201555 67 326 3.0 9.0 0.00 0.00 0.00 34 1010.7
20260501200038 67 326 3.0 10.0 0.00 0.00 0.00 34 1010.8
20260501194619 67 316 3.0 9.0 0.00 0.00 0.00 34 1011.3
20260501194503 67 10 2.0 9.0 0.00 0.00 0.00 33 1011.3
20260501193052 68 321 5.0 12.0 0.00 0.00 0.00 32 1011.5
20260501191515 68 16 4.0 10.0 0.00 0.00 0.00 30 1011.9
20260501190030 67 343 1.0 12.0 0.00 0.00 0.00 32 1012.1
20260501184529 67 305 3.0 13.0 0.00 0.00 0.00 31 1012.2
20260501183026 66 292 3.0 14.0 0.00 0.00 0.00 33 1012.5
20260501181558 65 3 7.0 14.0 0.00 0.00 0.00 33 1012.9
20260501180044 65 321 1.0 10.0 0.00 0.00 0.00 33 1013.3
20260501174600 65 10 2.0 10.0 0.00 0.00 0.00 33 1013.4
20260501173005 65 23 5.0 10.0 0.00 0.00 0.00 33 1013.6
20260501171534 65 360 0.0 10.0 0.00 0.00 0.00 34 1014.0
20260501170027 63 351 0.0 8.0 0.00 0.00 0.00 34 1014.2
20260501164545 63 355 1.0 9.0 0.00 0.00 0.00 35 1014.5
20260501163031 63 18 1.0 9.0 0.00 0.00 0.00 33 1014.6
20260501161547 62 316 1.0 10.0 0.00 0.00 0.00 37 1014.8
20260501160038 61 2 0.0 10.0 0.00 0.00 0.00 38 1015.1
20260501154513 61 294 0.0 7.0 0.00 0.00 0.00 37 1015.3
20260501153016 61 66 1.0 8.0 0.00 0.00 0.00 39 1015.6
20260501151519 60 359 1.0 6.0 0.00 0.00 0.00 38 1015.6
20260501150023 60 295 1.0 7.0 0.00 0.00 0.00 40 1015.6
20260501144547 58 316 0.0 6.0 0.00 0.00 0.00 42 1015.8
20260501143043 57 326 1.0 5.0 0.00 0.00 0.00 43 1015.7